"Pseudo-MPEC" for ZTF10F3

Created 2026 Jul 26 18:35:21 UT using Find_Orb

Click here for an explanation of pseudo-MPECs

 
 Astrometry: 
     ZTF10F3*0C2026 07 25.43430300 33 32.476+05 39 15.91   ~7PE5 17.20RUNEOCPI41
     ZTF10F3 0C2026 07 25.43465000 33 38.164+05 39 36.61   ~7PE5 17.20RUNEOCPI41
     ZTF10F3 0C2026 07 25.44523400 36 31.570+05 50 12.69   ~7PE5 17.01RUNEOCPI41
     ZTF10F3 0C2026 07 25.44558200 36 36.986+05 50 33.28   ~7PE5 17.01RUNEOCPI41

Station data:
(I41) Palomar Mountain--ZTF  (N33.357336 W116.859780)  US/California.
   Observers B. T. Bolin, Z. T. F. Collaboration. Measurers B. T. Bolin,
   Z.-Y. Lin, F. J. Masci. 1.2-m f/2.4 Schmidt.

Orbital elements:  ZTF10F3
   Perihelion 2026 Aug 31.993663 +/- 22.6 TT = 23:50:52.5 (JD 2461284.493663)
Epoch 2026 Jul 25.0 TT = JDT 2461246.5   Earth MOID: 0.0001   Ve: 0.0006
M 318.228141224 +/- 41              Me: 0.0050                   AutoNEOCP
n   1.099442778 +/- 0.704           Peri.  344.378729 +/- 44
a   0.929724542 +/- 0.397           Node   122.596181 +/- 21
e   0.95525800 +/- 0.228            Incl.   26.965090 +/- 46
P   0.896/327.432d         H 25.62  G  0.15   U 12.5  SR
q 0.041597726 +/- 0.321    Q 1.817851357 +/- 14           (J2000 ecliptic)
From 4 observations 2026 July 25 (16.2 min); mean residual 1".69
Residuals in arcseconds: 
260725 I41  1.1-  .16-    260725 I41  3.2+  .39+    
260725 I41  1.1+  .15+    260725 I41  3.1-  .39-    

Ephemerides (geocentric):
Date (UTC) HH   RA             Dec           delta  r     elong  mag " sig PA
---- --------  ------------   ------------  ------ ------ -----  --- --------
2026 07 26 19  10 02 47.110   +04 01 35.71  .02068 0.9975  28.8 25??  40d  83
2026 07 26 20  10 04 21.810   +03 55 31.15  .02150 0.9968  29.1 25??  39d  83
2026 07 26 21  10 05 49.480   +03 49 53.04  .02233 0.9962  29.4 25??  39d  83
2026 07 26 22  10 07 10.867   +03 44 38.63  .02315 0.9955  29.7 25??  39d  83
2026 07 26 23  10 08 26.616   +03 39 45.58  .02398 0.9948  30.0 25??  39d  83
2026 07 27 00  10 09 37.289   +03 35 11.80  .02481 0.9942  30.2 25??  39d  83
2026 07 27 01  10 10 43.375   +03 30 55.50  .02564 0.9935  30.5 25??  39d  83
2026 07 27 02  10 11 45.302   +03 26 55.07  .02647 0.9928  30.7 25??  39d  83
2026 07 27 03  10 12 43.448   +03 23 09.12  .02730 0.9922  30.9 25??  38d  83
2026 07 27 04  10 13 38.145   +03 19 36.38  .02813 0.9915  31.1 25??  38d  83
2026 07 27 05  10 14 29.690   +03 16 15.77  .02896 0.9909  31.2 26??  38d  83
2026 07 27 06  10 15 18.344   +03 13 06.28  .02979 0.9902  31.4 26??  38d  83
2026 07 27 07  10 16 04.342   +03 10 07.03  .03062 .98953  31.6 26??  38d  83
2026 07 27 08  10 16 47.894   +03 07 17.22  .03146 .98886  31.7 26??  38d  83
2026 07 27 09  10 17 29.188   +03 04 36.16  .03229 .98819  31.8 26??  38d  83
2026 07 27 10  10 18 08.394   +03 02 03.18  .03312 .98753  31.9 26??  38d  83
2026 07 27 11  10 18 45.664   +02 59 37.70  .03396 .98686  32.1 26??  38d  83
2026 07 27 12  10 19 21.138   +02 57 19.21  .03479 .98619  32.2 26??  38d  83
2026 07 27 13  10 19 54.940   +02 55 07.21  .03562 .98553  32.3 26??  38d  83
2026 07 27 14  10 20 27.186   +02 53 01.27  .03646 .98486  32.4 26??  37d  83
2026 07 27 15  10 20 57.979   +02 51 01.00  .03729 .98419  32.4 26??  37d  83
2026 07 27 16  10 21 27.413   +02 49 06.02  .03813 .98352  32.5 26??  37d  82
2026 07 27 17  10 21 55.576   +02 47 16.01  .03896 .98285  32.6 26??  37d  82
2026 07 27 18  10 22 22.548   +02 45 30.66  .03980 .98218  32.7 26??  37d  82
2026 07 27 19  10 22 48.402   +02 43 49.68  .04063 .98151  32.7 26??  37d  82
2026 07 27 20  10 23 13.204   +02 42 12.82  .04147 .98084  32.8 26??  37d  82
2026 07 27 21  10 23 37.017   +02 40 39.83  .04230 .98017  32.9 26??  37d  82
2026 07 27 22  10 23 59.898   +02 39 10.51  .04314 .97950  32.9 26??  37d  82
2026 07 27 23  10 24 21.900   +02 37 44.63  .04397 .97882  33.0 26??  37d  82
2026 07 28 00  10 24 43.071   +02 36 22.02  .04481 .97815  33.0 26??  37d  82
2026 07 28 01  10 25 03.458   +02 35 02.49  .04564 .97748  33.1 26??  37d  82
2026 07 28 02  10 25 23.102   +02 33 45.89  .04648 .97680  33.1 26??  37d  82
2026 07 28 03  10 25 42.042   +02 32 32.06  .04732 .97613  33.1 26??  37d  82
2026 07 28 04  10 26 00.315   +02 31 20.85  .04815 .97545  33.2 26??  37d  82
2026 07 28 05  10 26 17.955   +02 30 12.15  .04899 .97478  33.2 26??  37d  82
2026 07 28 06  10 26 34.993   +02 29 05.82  .04983 .97410  33.2 26??  37d  82
2026 07 28 07  10 26 51.460   +02 28 01.75  .05066 .97343  33.3 26??  36d  82
2026 07 28 08  10 27 07.382   +02 26 59.84  .05150 .97275  33.3 26??  36d  82
2026 07 28 09  10 27 22.786   +02 25 59.97  .05234 .97207  33.3 26??  36d  82
2026 07 28 10  10 27 37.695   +02 25 02.06  .05317 .97139  33.3 26??  36d  82
2026 07 28 11  10 27 52.134   +02 24 06.02  .05401 .97072  33.4 26??  36d  82
2026 07 28 12  10 28 06.123   +02 23 11.76  .05485 .97004  33.4 26??  36d  82
2026 07 28 13  10 28 19.682   +02 22 19.21  .05568 .96936  33.4 26??  36d  82
2026 07 28 14  10 28 32.830   +02 21 28.29  .05652 .96868  33.4 26??  36d  82
2026 07 28 15  10 28 45.585   +02 20 38.93  .05736 .96800  33.4 26??  36d  82
2026 07 28 16  10 28 57.964   +02 19 51.07  .05820 .96732  33.4 26??  36d  82
2026 07 28 17  10 29 09.982   +02 19 04.64  .05903 .96663  33.5 26??  36d  82
2026 07 28 18  10 29 21.656   +02 18 19.59  .05987 .96595  33.5 26??  36d  82